Location: Aroggou
(32.9245°N, 5.5559°W)
Time: 17:28:56
(UTC+00:00)

Daily predictions for brighter satellites

Satellite Brightness Start Highest point End
(mag) Time Altitude Azimuth Time Altitude Azimuth Time Altitude Azimuth
VEP-3 3.4 19:50:01 10° WSW 19:55:55 36° S 20:01:29 10° ESE
Timation 1 Rocket 4.4 19:53:37 10° NNW 19:59:35 76° ENE 20:05:32 10° SSE
CZ-4 R/B 4.2 19:58:09 10° SW 20:00:38 16° W 20:03:06 10° WNW
OAO 2 Rocket 3.5 19:55:39 10° WSW 20:00:53 69° SSE 20:06:10 10° ENE
SL-14 R/B 3.4 19:57:30 10° S 20:01:23 84° W 20:05:22 10° N
NOSS 3-1 (C) 4.4 19:54:28 10° NNW 20:02:29 86° WSW 20:11:25 10° SSE
SJ-6B 3.1 20:00:01 10° SSE 20:03:48 50° ENE 20:07:42 10° N
MOS 1 Rocket 3.5 20:01:21 10° N 20:06:11 86° WNW 20:11:18 10° SSW
Cosmos 2315 Rocket 4.1 20:02:36 10° N 20:08:57 79° E 20:15:19 10° S
Cosmos 1937 Rocket 4.3 20:04:59 10° NNW 20:10:10 56° WSW 20:15:19 10° S
Cosmos 1461 4.4 20:10:15 10° N 20:14:19 28° NE 20:18:14 11° ESE
USA 229 DEB 4.1 20:10:00 10° NNW 20:17:26 79° WSW 20:25:07 10° SSE
USA 229 4.1 20:10:04 10° NNW 20:17:31 79° WSW 20:25:14 10° SSE
Delta 2 Rocket 3.3 20:20:33 10° W 20:24:01 59° N 20:27:20 10° ENE
Cosmos 1602 Rocket 3.9 20:21:07 10° SSE 20:25:17 45° E 20:29:31 10° NNE
NOSS 3-1 (A) 4.3 20:19:41 10° NNW 20:27:44 89° ENE 20:36:35 10° SSE
Cosmos 2285 Rocket 4.1 20:21:42 10° NNW 20:28:01 84° WSW 20:34:18 10° SSE
Cosmos 1356 Rocket 3.4 20:24:37 10° N 20:28:52 89° W 20:33:03 10° S
CZ-2C R/B 3.8 20:25:30 10° NNE 20:30:18 85° ESE 20:35:04 10° SSW
Atlas Centaur 2 2.3 20:26:03 10° WSW 20:31:23 66° S 20:38:13 10° E
Cosmos 2219 Rocket 3.6 20:30:39 14° SE 20:32:52 18° E 20:36:26 10° ENE
Cosmos 372 Rocket 4.1 20:28:09 10° NNW 20:33:24 80° WSW 20:38:37 10° S
Cosmos 2360 Rocket 2.2 20:28:53 10° S 20:34:25 62° ESE 20:40:00 10° NNE
Cosmos 2263 Rocket 2.2 20:29:26 10° NNW 20:35:01 89° ENE 20:40:18 11° SSE
Meteor 2-16 Rocket 4.4 20:31:59 10° S 20:38:02 79° E 20:44:07 10° N
DELTA 2 R/B (1) 3.9 20:34:02 10° SW 20:39:14 42° SE 20:44:29 10° ENE
FALCON 9 R/B 0.0 20:37:33 10° W 20:40:17 77° SSW 20:41:14 28° ESE
Cosmos 2333 Rocket 3.2 20:39:22 15° SE 20:42:30 24° ESE 20:47:00 10° NE
Resurs 01 Rocket 1.8 20:45:41 19° SE 20:48:38 53° ENE 20:52:56 10° N
Cosmos 1818 3.7 20:44:13 10° SSW 20:49:37 78° WNW 20:55:04 10° NNE
SL-16 R/B 3.9 20:48:15 10° SW 20:53:22 35° WNW 20:58:32 10° N
Cosmos-2242 4.4 20:54:50 10° NNE 20:58:14 22° ENE 20:59:06 21° E
CZ-2C R/B 4.0 20:53:25 10° N 20:58:25 41° WNW 21:03:18 10° SW
ATLAS 5 CENTAUR R/B 2.4 21:02:45 10° SW 21:06:37 49° WNW 21:10:50 10° NNE
GEOS 3 Rocket 3.8 21:03:01 10° NNE 21:08:26 82° NW 21:13:47 10° SW
USA 245 4.0 21:08:35 27° ENE 21:08:43 27° ENE 21:11:46 10° N
Cosmos 1758 Rocket 3.5 21:07:51 22° S 21:10:44 73° E 21:15:13 10° N
USA 215 3.1 21:05:25 10° NE 21:11:58 79° SE 21:18:29 10° SW
SPOT 5 4.5 21:13:56 19° E 21:15:01 21° ENE 21:18:37 10° NNE
Cosmos 1844 Rocket 3.4 21:11:09 10° N 21:16:17 37° ENE 21:18:15 28° ESE
Cosmos 1400 Rocket 3.6 21:13:58 10° NNE 21:17:31 32° ENE 21:17:41 32° E
Spot 2 Rocket 3.8 21:16:45 34° SE 21:18:40 52° ENE 21:23:36 10° N
Meteor 2-10 Rocket 3.5 21:15:41 10° N 21:20:52 89° E 21:23:39 29° S
OAO 3 Rocket 3.3 21:16:38 10° WNW 21:21:33 77° N 21:23:58 30° E
Landsat 7 4.1 21:21:48 38° SE 21:23:12 52° ENE 21:27:49 10° N
Cosmos 1745 Rocket 4.5 21:21:51 10° SSW 21:27:54 60° W 21:34:04 10° N
SPOT 1/Viking Rocket 3.7 21:31:53 42° ESE 21:33:15 55° ENE 21:38:17 10° N
Cosmos 1953 Rocket 3.4 21:33:11 56° SSE 21:33:54 68° E 21:38:11 10° NNE
Cosmos 1125 Rocket 4.3 21:30:33 10° NNW 21:35:34 46° WSW 21:38:21 24° SSW
Cosmos 1328 4.2 21:37:16 35° SSW 21:38:42 60° W 21:42:38 10° N
OAO 2 Rocket 3.6 21:40:30 10° W 21:45:48 71° N 21:48:29 29° ENE
SAR-Lupe-2 3.8 21:44:16 10° N 21:47:49 65° WNW 21:47:57 64° W
Cosmos 1825 Rocket 4.5 21:47:20 25° SW 21:49:34 46° W 21:53:52 10° N
Cosmos 1455 3.3 21:47:22 10° NNW 21:50:59 39° W 21:51:42 35° WSW
Cosmos 967 Rocket 4.4 21:55:33 44° S 21:57:30 65° ESE 22:03:54 10° NNE
ATLAS CENTAUR R/B 3.5 21:57:02 10° NNE 21:58:26 14° NE 21:58:26 14° NE
COSMOS 2428 2.7 21:57:26 29° SSW 22:00:26 78° WNW 22:06:08 10° NNE
Alouette 2 Rocket 4.0 21:58:39 10° NNW 22:02:55 78° W 22:03:55 58° SSW
NOSS 0 Rocket 3.9 22:07:31 59° ESE 22:07:48 60° ESE 22:13:50 10° NNE
ATLAS CENTAUR R/B 4.4 22:06:17 10° WSW 22:07:28 13° SW 22:07:28 13° SW
CARTOSAT-1 3.7 22:10:04 72° N 22:10:04 72° N 22:13:57 10° NNW
Terra 2.2 22:10:34 50° NE 22:10:34 50° NE 22:14:47 10° N
Cosmos 1844 3.5 22:04:57 10° NNW 22:10:44 88° WSW 22:11:25 70° SSE
Meteosat 1 Rocket2 4.5 22:02:57 10° W 22:12:26 51° SSW 22:13:19 49° S
Cosmos 2237 Rocket 2.8 22:14:58 42° ENE 22:14:58 42° ENE 22:19:18 10° NNE
Cosmos 2344 3.7 22:16:02 47° ESE 22:16:06 47° ESE 22:23:13 10° NE
Cosmos 2219 Rocket 3.0 22:12:14 17° SW 22:16:19 48° WNW 22:21:44 10° N
Meteor 1-27 4.1 22:12:01 10° N 22:17:46 73° E 22:18:05 71° ESE
BREEZE-M DEB (TANK) 3.3 22:15:26 10° NW 22:18:38 78° NNW 22:18:38 78° NNW
Atlas Centaur 2 2.5 22:14:24 10° W 22:20:38 68° S 22:21:21 64° SSE
Resurs 01 Rocket 4.4 22:24:53 10° W 22:25:22 10° W 22:25:51 10° W
DELTA 2 R/B (1) 3.9 22:20:03 10° W 22:25:35 64° NNW 22:30:03 16° ENE
Cosmos 2333 Rocket 3.5 22:21:17 10° SW 22:26:29 37° WNW 22:31:45 10° N
Cosmos 2184 Rocket 3.8 22:27:10 74° SE 22:27:40 80° E 22:33:56 10° N
Cosmos 1315 Rocket 4.0 22:27:08 10° N 22:29:55 42° NNW 22:29:55 42° NNW
Meteor 2-2 Rocket 4.5 22:30:41 10° N 22:35:55 57° ENE 22:35:55 57° ENE
ERS-1 Rocket 3.6 22:36:51 47° W 22:36:51 47° W 22:41:41 10° NNW
Cosmos 2221 3.8 22:36:35 10° N 22:39:20 37° N 22:39:20 37° N
ATLAS 2AS CENTAUR R/B 4.2 22:38:05 10° N 22:44:01 25° NE 22:46:24 21° ENE
SPOT 5 4.1 22:53:10 37° W 22:53:10 37° W 22:57:23 10° NNW
Cosmos 2278 Rocket 2.8 22:50:09 10° N 22:54:59 49° NE 22:54:59 49° NE
SL-16 R/B 3.7 23:00:46 25° NE 23:00:46 25° NE 23:03:26 10° NE
Cosmos 1844 Rocket 4.3 22:55:35 10° NW 22:59:52 23° WSW 22:59:56 23° WSW
Cosmos 2154 Rocket 4.0 23:07:50 75° NW 23:07:50 75° NW 23:13:45 10° N
Cosmos 2341 Rocket 4.4 23:11:47 51° NE 23:11:47 51° NE 23:16:46 10° NNE
Nadezhda 3 Rocket 4.1 23:08:09 10° N 23:13:54 73° NNE 23:13:54 73° NNE
Cosmos 1680 Rocket 4.4 23:15:58 46° NW 23:15:58 46° NW 23:20:31 10° N
USA 267 3.7 23:21:24 48° ENE 23:22:20 51° NE 23:28:38 10° NNW
Terra 4.5 23:49:27 11° WNW 23:49:27 11° WNW 23:50:05 10° WNW
